Location: *
(47.6569°N, 7.4256°E)
Time: 07:14:50
(UTC+00:00)

SMAP - Pass Details

Date: 14 December 2019
Orbit: 681 x 684 km, 98.1° (Epoch: 19 January)

Event Time Altitude Azimuth Distance (km) Brightness Sun altitude
Rises 16:23:24 0° 152° (SSE) 3,036 6.4 -7.3°
Reaches altitude 10° 16:25:39 10° 147° (SSE) 2,125 5.6 -7.7°
Maximum altitude 16:30:11 54° 71° (ENE) 829 3.2 -8.3°
Drops below altitude 10° 16:34:45 10° 355° (N) 2,139 5.4 -9.0°
Sets 16:37:02 0° 351° (N) 3,059 6.3 -9.4°
